sat.trackr.live / text

‹ back to catalog

JILIN-1 GAOFEN 3H

NORAD 46460 · 2020-065G

PAYLOAD ACTIVE UNKNOWN

§ Identity

Operator
Country
PRC
Launch date
2020-09-15
Launch site
SEAL
Launch vehicle
Mass (kg)
RCS (m²)

External: N2YO · Heavens-Above · Gunter

§ Orbital elements

Epoch: 2026-09-09T03:40:17.808960Z

Period
90.81 min
Inclination
97.2060°
Eccentricity
0.0001260
Mean motion
15.85746439 rev/d
Perigee alt
313.4 km
Apogee alt
315.1 km
Semi-major
6,692.4 km
B*
7.8854e-4
RAAN
308.5452°
Arg perigee
56.7210°
Mean anomaly
303.4182°
Rev number
33,310

§ Raw data

JILIN-1 GAOFEN 3H1 46460U 20065G   26252.15298390  .00194341  00000+0  78854-3 0  99932 46460  97.2060 308.5452 0001260  56.7210 303.4182 15.85746439333106

JSON: /api/v1/satellites/46460 · /tle

For live sub-satellite position, see the globe view (requires WebGL).

§ Visibility from observer

Set your observer location to see the next 7 days of passes ≥ 10°. The values pass through the URL so the page stays shareable.

No JS? Fill the form by hand. The geolocation button needs JavaScript.

§ Radio — SatNOGS DB

ModeDescriptionDownlinkUplink
BPSK Jillin Mysterious Pip 1.616 GHz

1 transmitter · refreshed weekly from db.satnogs.org